Overview Statistics Trail Chart Weather Telemetry Raw packets
 

This is the latest recevied weather packets stored in our database for station/object W5LND-10. If no packets are shown the sender has not sent any weather packets the latest 10 day(s).

<< 104 105 106 107 108 109 110 >>
Time Temp. Humidity Pressure Rain* Wind** Luminosity Snow
1787822449 25.56° C 61% 1011.5 hPa 0 mm - 0 W/m² -
1787822149 25° C 61% 1011.4 hPa 0 mm - 0 W/m² -
1787821849 25.56° C 60% 1011.5 hPa 0 mm - 0 W/m² -
1787821549 25.56° C 60% 1011.6 hPa 0 mm - 0 W/m² -
1787821249 25.56° C 60% 1011.8 hPa 0 mm - 0 W/m² -
1787820949 26.11° C 58% 1011.7 hPa 0 mm - 0 W/m² -
1787820649 26.67° C 57% 1011.9 hPa 0 mm - 0 W/m² -
1787820349 26.67° C 56% 1011.9 hPa 0 mm - 0 W/m² -
1787820080 27.22° C 54% 1012 hPa 0 mm - 0 W/m² -
1787820049 27.22° C 54% 1012 hPa 0 mm - 0 W/m² -
1787819749 27.78° C 51% 1012.1 hPa 0 mm - 0 W/m² -
1787819449 28.33° C 49% 1012 hPa 0 mm - 0 W/m² -
1787819149 28.33° C 49% 1012 hPa 0 mm - 0 W/m² -
1787818849 28.33° C 48% 1012.1 hPa 0 mm - 0 W/m² -
1787818549 28.33° C 48% 1012.1 hPa 0 mm - 0 W/m² -
1787818249 28.89° C 47% 1012 hPa 0 mm - 0 W/m² -
1787817949 28.89° C 47% 1011.8 hPa 0 mm - 0 W/m² -
1787817649 28.89° C 47% 1011.7 hPa 0 mm - 0 W/m² -
1787817349 28.89° C 47% 1011 hPa 0 mm - 0 W/m² -
1787817049 28.89° C 47% 1010.8 hPa 0 mm - 0 W/m² -
1787816749 28.89° C 47% 1010.6 hPa 0 mm - 0 W/m² -
1787816449 28.89° C 46% 1010.6 hPa 0 mm - 0 W/m² -
1787816149 28.89° C 46% 1010.5 hPa 0 mm - 0 W/m² -
1787815849 29.44° C 46% 1010.3 hPa 0 mm - 0 W/m² -
1787815549 29.44° C 46% 1010.4 hPa 0 mm - 0 W/m² -

* Rain latest hour (hover to see other rain measurements)
** Current wind speed in m/s (hover to see current wind gust speed)